sat.trackr.live / text

‹ back to catalog

STARLINK-33830

NORAD 63587 · 2025-076U

PAYLOAD ACTIVE UNKNOWN

§ Identity

Operator
Country
US
Launch date
2025-04-14
Launch site
AFETR
Launch vehicle
Mass (kg)
RCS (m²)

Purposes: comms

External: N2YO · Heavens-Above · Gunter

§ Orbital elements

Epoch: 2026-05-25T00:23:46.260096Z

Period
94.27 min
Inclination
43.0032°
Eccentricity
0.0003103
Mean motion
15.27592638 rev/d
Perigee alt
480.9 km
Apogee alt
485.1 km
Semi-major
6,861.1 km
B*
4.6321e-4
RAAN
250.6382°
Arg perigee
273.1452°
Mean anomaly
86.9045°
Rev number
6,350

§ Raw data

STARLINK-338301 63587U 25076U   26145.01650764  .00012511  00000+0  46321-3 0  99942 63587  43.0032 250.6382 0003103 273.1452  86.9045 15.27592638 63504

JSON: /api/v1/satellites/63587 · /tle

For live sub-satellite position, see the globe view (requires WebGL).

§ Visibility from observer

Set your observer location to see the next 7 days of passes ≥ 10°. The values pass through the URL so the page stays shareable.

No JS? Fill the form by hand. The geolocation button needs JavaScript.